{"data":{"norad_id":54086,"intl_designator":"2022-136AM","name":"STARLINK-5211","alt_names":[],"object_type":"PAYLOAD","status":"ACTIVE","operator":null,"country":"US","launch_date":"2022-10-20","launch_site_code":"AFETR","launch_vehicle":null,"mission":null,"orbit_class":"UNKNOWN","rcs_meters":null,"size_class":null,"mass_kg":null,"dimensions":null,"purposes":["comms"],"wikipedia_slug":null,"has_3d_model":false,"image_url":null,"decayed_at":null,"tle_current":{"epoch":"2026-09-20T10:26:06.859968Z","epoch_age_seconds":94861,"freshness":"FRESH","line1":"1 54086U 22136AM  26263.43480162 -.00005423  00000+0 -14957-3 0  9998","line2":"2 54086  53.1622 155.8648 0001350  81.7488 278.3668 15.34378250216711","mean_motion":15.3437825,"eccentricity":0.000135,"inclination_deg":53.1622,"raan_deg":155.8648,"arg_perigee_deg":81.7488,"mean_anomaly_deg":278.3668,"bstar":-0.00014957,"rev_number":21671,"period_min":93.849088384823,"perigee_km":461.84436439466,"apogee_km":463.69140871403,"semimajor_km":6840.9048865543,"source":"CELESTRAK","updated_at":"2026-09-21T09:00:33.082250Z"}}}